Flag for Norway Weather past 2 weeks in Førde, Norway

Now
52 °F

Sprinkles. Broken clouds.


Feels Like: 50 °F
Forecast: 49 / 56 °F
Wind: 6 mph from West

Location: Forde / Bringeland

Current Time: Sep 30, 2014 at 8:15:45 PM

Latest Report: Sep 30, 2014 at 7:20 PM


Visibility: N/A

Pressure: 30.18 "Hg

Humidity: 82%

Dew point: 46 °F

Location of FørdeLocation

Historic Weather in Førde — Graph

°F

Førde temperature yesterday

Maximum temperature yesterday: 52 °F (at 2:20 PM)
Minimum temperature yesterday: 43 °F (at 6:20 AM)
Average temperature yesterday: 47 °F

Past Weeks' High & Low Weather Summary

 TemperatureHumidityPressure
High70 °F (Sep 16, 3:20 PM)100% (Sep 19, 5:50 AM)30.30 "Hg (Sep 19, 5:50 AM)
Low37 °F (Sep 22, 7:50 AM)31% (Sep 16, 3:50 PM)29.36 "Hg (Sep 26, 8:20 AM)
Average49 °F81%29.95 "Hg
* Reported Sep 15 6:20 PM — Sep 30 6:50 PM, Førde, Weather by CustomWeather, © 2014

Note: Actual official high and low records may vary slightly from our data, if they occured in-between our weather recording intervals... More about our weather records

Advertising

Førde weather history for previous 24 hours

 ConditionsComfort  
Time TempWeatherWind HumidityBarometerVisibility
6:50 PM
Sep 30
55 °FScattered showers. Broken clouds.8 mph72%30.15 "HgN/A
6:20 PM55 °FScattered showers. Broken clouds.8 mph72%30.15 "HgN/A
5:50 PM55 °FBroken clouds.8 mph67%30.15 "HgN/A
5:20 PM55 °FBroken clouds.5 mph72%30.18 "HgN/A
4:50 PM55 °FBroken clouds.7 mph67%30.18 "HgN/A
4:20 PM57 °FPartly sunny.8 mph63%30.18 "HgN/A
3:50 PM57 °FPartly sunny.8 mph63%30.18 "HgN/A
2:20 PM55 °FPartly sunny.7 mph67%30.18 "HgN/A
1:50 PM55 °FBroken clouds.6 mph67%30.18 "HgN/A
1:20 PM55 °FBroken clouds.6 mph72%30.18 "HgN/A
12:50 PM55 °FBroken clouds.3 mph72%30.18 "HgN/A
12:20 PM54 °FBroken clouds.3 mph77%30.18 "HgN/A
11:50 AM54 °FBroken clouds.5 mph77%30.15 "HgN/A
10:50 AM50 °FCool.2 mph88%30.15 "HgN/A
10:20 AM50 °FCool.5 mph94%30.15 "HgN/A
9:50 AM48 °FCool.2 mph87%30.15 "HgN/A
9:20 AM48 °FCool.1 mph87%30.15 "HgN/A
8:50 AM46 °FScattered showers. Broken clouds.3 mph93%30.15 "HgN/A
8:20 AM46 °FPartly cloudy.No wind87%30.15 "HgN/A
7:50 AM45 °FQuite cool.5 mph93%30.15 "HgN/A
7:20 AM46 °FCool.5 mph87%30.15 "HgN/A
6:50 AM46 °FPassing clouds.5 mph93%30.15 "HgN/A
6:20 AM46 °FPassing clouds.5 mph93%30.15 "HgN/A
5:50 AM46 °FPassing clouds.5 mph93%30.15 "HgN/A
10:50 PM
Sep 29
45 °FClear.3 mph93%30.15 "Hg10 mi
10:20 PM45 °FClear.3 mph93%30.15 "Hg10 mi
9:50 PM46 °FPassing clouds.3 mph87%30.15 "HgN/A
9:20 PM46 °FPassing clouds.3 mph87%30.15 "HgN/A
8:50 PM46 °FPassing clouds.3 mph87%30.15 "HgN/A
8:20 PM46 °FPassing clouds.3 mph87%30.15 "HgN/A
Weather by CustomWeather, © 2014

See weather overviewHow to use our weather pages